Location: ??? ????
(38.0580°N, 23.1536°E)
Time: 14:03:11
(UTC+00:00)

Cosmos-2242 - Pass Details

Date: 13 December 2025
Orbit: 566 x 591 km, 82.5° (Epoch: 17 January)

Event Time Altitude Azimuth Distance (km) Brightness Sun altitude
Rises 17:01:31 0° 205° (SSW) 2,806 7.0 -21.6°
Reaches altitude 10° 17:03:50 10° 214° (SSW) 1,912 6.2 -22.0°
Maximum altitude 17:07:45 37° 281° (WNW) 932 4.4 -22.8°
Drops below altitude 10° 17:11:43 10° 350° (N) 1,929 5.6 -23.5°
Enters shadow 17:12:13 - 352° (N) 2,120 5.8 -23.6°
